www.pogodaiklimat.ru

Погода и климат >> Архив погоды >> Индия >> Surat


ПОГОДА в Surat

  • Прогноз погоды в Surat
  • Монитор погоды в Surat
  • Климат города

АРХИВ ПОГОДЫ в Surat

Время (UTC), дата Ветер
(напр.,м/с)
 
Видим.   Явления Облачность Т
(С)
Тd
(С)
f
(%)
Тe
(С)
Тes
(С)
Комфортность P
(гПа)
Po
(гПа)
Тmin
(С)
Tmax
(С)
R
(мм)
R24
(мм)
S
(см)
00 14.09 штиль 0 4000 м 4/4 600 м
[Sc]
+26.4 +24.4 89 +37 +37 очень
душно
1008.1 1008.0
03 14.09 штиль 0 4000 м 5/5 600 м
[Cu Sc]
+28.2 +24.5 80 +40 +43 очень
душно
1010.0 1010.0 +25.6
06 14.09 ЮЗ 2 4000 м 6/6 600 м
[Cu Sc]
+30.0 +23.0 66 +40 +48 очень
душно
1011.1 1011.0
09 14.09 ЮЗ 2 4000 м 4/4 600 м
[Cu Sc]
+31.4 +24.3 66 +44 +54 опасность
перегрева
1009.4 1009.0
12 14.09 ЮЗ 2 4000 м 4/4 600 м
[Cu Sc]
+29.8 +24.4 73 +42 +43 опасность
перегрева
1009.1 1009.0 +31.8
15 14.09 ЮЗ 2 4000 м 5/3 600 м
[Sc Ac trans]
+28.0 +24.6 82 +40 +40 очень
душно
1010.3 1010.0
18 14.09 Ю 1 4000 м 3/3 600 м
[Sc]
+27.2 +24.6 86 +39 +39 очень
душно
1011.0 1011.0
21 14.09 штиль 0 4000 м 4/4 600 м
[Sc]
+26.6 +24.3 87 +37 +37 очень
душно
1010.2 1010.0
00 15.09 штиль 0 4000 м 5/3 600 м
[Sc Ac trans]
+26.0 +24.3 90 +36 +36 очень
душно
1009.7 1010.0
03 15.09 штиль 0 4000 м 5/4 600 м
[Cu Sc Ac trans]
+27.0 +23.5 81 +37 +40 очень
душно
1012.2 1012.0 +25.0
06 15.09 З 1 4000 м 9/5 600 м
[Cu Sc Ac trans]
+27.0 +22.6 77 +36 +41 очень
душно
1013.1 1013.0
09 15.09 З 1 4000 м 8/5 450 м
[St Ac trans]
+29.6 +23.2 69 +40 +46 очень
душно
1010.3 1010.0
12 15.09 ЮЗ 2 4000 м 4/4 600 м
[Cu Sc]
+30.6 +22.1 61 +40 +41 очень
душно
1009.0 1009.0 +31.6
15 15.09 штиль 0 4000 м 5/0
[Ac trans]
+27.6 +23.8 80 +38 +38 очень
душно
1010.2 1010.0
18 15.09 штиль 0 4000 м 3/0
[Ac trans]
+27.2 +24.6 86 +39 +39 очень
душно
1010.7 1011.0
21 15.09 штиль 0 4000 м 5/3 600 м
[Sc Ac trans]
+26.4 +24.4 89 +37 +37 очень
душно
1009.7 1010.0
00 16.09 штиль 0 4000 м 4/1 600 м
[Sc Ac trans]
+26.2 +23.3 84 +35 +35 очень
душно
1009.9 1010.0
03 16.09 З 1 4000 м 3/0
[Ac trans]
+27.8 +22.8 74 +37 +41 очень
душно
1011.6 1012.0 +25.6
06 16.09 штиль 0 4000 м 6/6 600 м
[Cu Sc]
+30.6 +22.4 62 +40 +50 очень
душно
1011.7 1012.0
09 16.09 СЗ 3 4000 м 4/4 600 м
[Sc diur, vesp]
+31.8 +22.1 57 +41 +49 опасность
перегрева
1008.5 1009.0
12 16.09 Ю 2 4000 м 3/0
[Ac trans]
+31.4 +22.7 60 +41 +43 опасность
перегрева
1007.6 1008.0 +32.8
15 16.09 штиль 0 4000 м 4/0
[Ac trans Ci fib]
+28.0 +23.9 78 +39 +39 очень
душно
1008.8 1009.0
18 16.09 Ю 1 4000 м 4/0
[Ci fib]
+27.4 +24.5 84 +39 +39 очень
душно
1009.4 1009.0
21 16.09 штиль 0 4000 м 4/1 600 м
[Cu hum Ci fib]
+27.0 +24.1 84 +37 +37 очень
душно
1008.2 1008.0
00 17.09 штиль 0 4000 м 4/1 600 м
[Sc Ci fib]
+26.0 +23.7 87 +35 +35 очень
душно
1008.2 1008.0
03 17.09 С 2 4000 м 4/4 600 м
[Sc diur, vesp]
+27.6 +23.5 78 +37 +40 очень
душно
1010.2 1010.0 +25.5
06 17.09 С 1 4000 м 6/6 600 м
[Cu Sc]
+30.6 +23.4 65 +41 +49 опасность
перегрева
1010.3 1010.0
09 17.09 З 1 4000 м 4/4 600 м
[Cu Sc]
+32.8 +22.0 53 +41 +52 опасность
перегрева
1007.5 1008.0
12 17.09 ЮЗ 2 4000 м 1/0
[Ci fib]
+31.2 +22.4 60 +41 +42 опасность
перегрева
1006.9 1007.0 +33.0
15 17.09 З 1 4000 м ясно +27.8 +23.1 76 +37 +37 очень
душно
1008.6 1009.0
18 17.09 З 1 4000 м 3/0
[Ci fib]
+27.2 +23.7 81 +37 +37 очень
душно
1009.8 1010.0
21 17.09 штиль 0 4000 м ясно +27.0 +23.8 83 +37 +37 очень
душно
1008.3 1008.0
00 18.09 ЮЗ 1 4000 м 4/1 600 м
[Sc Ac trans]
+25.8 +22.9 84 +34 +34 очень
душно
1008.5 1009.0
03 18.09 штиль 0 4000 м 3/3 600 м
[Sc]
+27.2 +23.7 81 +37 +41 очень
душно
1010.5 1011.0 +24.8
06 18.09 З 1 4000 м 5/5 600 м
[Cu Sc]
+30.2 +23.2 66 +40 +51 опасность
солнечного
удара
1010.5 1011.0
09 18.09 Ю 1 4000 м 4/3 600 м
[Sc Ac trans]
+32.4 +23.2 58 +43 +54 опасность
перегрева
1008.1 1008.0
12 18.09 ЮЗ 1 4000 м ясно +31.8 +22.5 58 +41 +43 опасность
перегрева
1007.2 1007.0 +32.2
15 18.09 ЮЗ 1 4000 м 3/0
[Ac trans]
+28.2 +23.6 76 +38 +38 очень
душно
1008.7 1009.0
18 18.09 ЮЗ 1 4000 м ясно +27.8 +24.6 83 +39 +39 очень
душно
1009.6 1010.0
21 18.09 штиль 0 4000 м ясно +27.0 +24.7 87 +38 +38 очень
душно
1008.9 1009.0
00 19.09 штиль 0 4000 м ясно +26.6 +24.0 86 +37 +37 очень
душно
1009.0 1009.0
03 19.09 штиль 0 4000 м 3/0
[Ac trans]
+28.2 +23.6 76 +38 +43 очень
душно
1011.1 1011.0 +26.0
06 19.09 ЮЗ 1 4000 м 4/3 600 м
[Cu Sc Ac trans]
+31.4 +23.3 62 +42 +55 опасность
перегрева
1010.5 1011.0
09 19.09 С 3 4000 м 5/3 600 м
[Sc Ac trans]
+33.0 +22.9 55 +43 +51 опасность
перегрева
1007.5 1008.0
12 19.09 ЮЗ 1 4000 м 8/3 600 м
[Sc Ac trans]
+31.0 +23.2 63 +41 +42 опасность
перегрева
1006.4 1006.0 +33.1
15 19.09 штиль 0 4000 м 8/3 600 м
[Sc Ac trans]
+29.0 +24.4 76 +41 +41 опасность
перегрева
1008.1 1008.0
18 19.09 В 2 4000 м 8/3 600 м
[Sc Ac trans]
+27.4 +23.3 78 +37 +37 очень
душно
1008.7 1009.0
21 19.09 штиль 0 4000 м 8/3 600 м
[Sc Ac trans]
+26.6 +24.9 90 +38 +38 очень
душно
1007.0 1007.0
00 20.09 штиль 0 4000 м 6/3 600 м
[Sc Ac trans]
+25.2 +23.1 88 +34 +34 очень
душно
1007.1 1007.0
03 20.09 штиль 0 4000 м 4/1 600 м
[Sc Ac trans]
+27.4 +23.6 80 +37 +41 очень
душно
1008.8 1009.0 +25.0
06 20.09 штиль 0 4000 м 4/4 750 м
[Cu hum]
+31.4 +23.0 61 +42 +56 опасность
перегрева
1008.8 1009.0
09 20.09 З 3 4000 м 3/3 750 м
[Cu hum]
+33.2 +23.8 58 +45 +54 опасность
перегрева
1006.5 1007.0
12 20.09 С 2 4000 м 5/0
[Ci fib]
+32.8 +22.3 54 +42 +43 опасность
перегрева
1005.1 1005.0 +33.8
15 20.09 СЗ 2 4000 м 5/3 600 м
[Sc Ac trans]
+29.2 +25.8 82 +44 +44 опасность
перегрева
1005.8 1006.0
18 20.09 СЗ 1 4000 м 4/0
[Ci fib]
+28.4 +26.2 88 +43 +43 опасность
перегрева
1006.8 1007.0
21 20.09 штиль 0 4000 м ясно +26.8 +25.7 94 +40 +40 очень
душно
1005.3 1005.0

 

Местоположение метеостанции Surat (Gujarat, Индия): широта 21.20 долгота 72.83 высота над уровнем моря 12 м.

В архиве по умолчанию представлена погода в Surat за последнюю неделю. Архивные данные за месяц целиком и за предыдущие месяцы, начиная с января 2011 года, Вы можете получить, выбрав интересующий диапазон дат из раскрывающегося списка и нажав кнопку "Ввод!".


*Определитесь, кто Вы:
робот инопланетянин человек

Внимание! Время в таблицах - всемирное. Для получения местного времени необходимо прибавить поправку, которая в Surat равна 5.5 ч.

Смотрите также архив погоды в соседних городах и на ближайших метеорологических станциях:

Погода в Valsad (Gujarat, Индия) (65 км)
Погода в Bhaunagar (Gujarat, Индия) (89 км)
Погода в Mahuva (Gujarat, Индия) (110 км)
Погода в Baroda (Gujarat, Индия) (134 км)
Погода в Dahanu (Maharashtra, Индия) (137 км)
Погода в Nandurbar (Maharashtra, Индия) (148 км)
Погода в Vallabh Vidyanagar (Gujarat, Индия) (153 км)
Погода в Nashik (Maharashtra, Индия) (166 км)
Погода в Amreli (Gujarat, Индия) (173 км)
Погода в Malegaon (Maharashtra, Индия) (191 км)

Пояснения к столбцам:

Ветер - указаны скорость ветра в м/с - средняя за 10 мин, порывы в срок и между сроками (в фигурных скобках) и направление, откуда дует ветер: С - северный, СВ - северо-восточный, В - восточный, ЮВ - юго-восточный, Ю - южный, ЮЗ - юго-западный, З - западный, СЗ - северо-западный.
Видимость - горизонтальная дальность видимости в метрах или километрах. При видимости от 1 до 10 км при отсутствии осадков обычно наблюдается дымка, при ухудшении видимости до 1 км и менее - туман. В сухую погоду видимость может ухудшаться дымом, пылью или мглою.
Явления - указаны атмосферные явления, наблюдавшиеся в срок или в последний час перед сроком; фигурными скобками обозначены явления, наблюдавшиеся между сроками (за 1-3 часа до срока); квадратными скобками обозначены град или гололедные отложения с указанием их диаметра в мм.
Облачность - указаны через наклонную черту общая и нижняя облачность в баллах и высота нижней границы облаков в метрах; квадратными скобками обозначены формы облаков: Ci - перистые, Cs - перисто-слоистые, Cc - перисто-кучевые, Ac - высококучевые, As - высокослоистые, Sc - слоисто-кучевые, Ns - слоисто-дождевые, Cu - кучевые, Cb - кучево-дождевые. Подробнее классификацию облаков см. в Атласе облаков (PDF).
T - Температура воздуха - температура, измеренная на высоте 2 м над землей.
Td - Температура точки росы - температура, при понижении до которой содержащийся в воздухе водяной пар достигнет насыщения.
f - Относительная влажность воздуха - влажноcть воздуха, измеренная на высоте 2 м над землей.
Te - Эффективная температура - температура, которую ощущает одетый по сезону человек в тени. Характеристика душности погоды. При расчете учитывается влияние влажности воздуха и скорости ветра на теплоощущения человека.
Tes - Эффективная температура на солнце - температура, которую ощущает человек, с поправкой на солнечный нагрев. Характеристика знойности погоды. Зависит от высоты солнца над горизонтом, облачности и скорости ветра. Ночью, в пасмурную погоду, а также при ветре 12 м/с и более поправка равна нулю.
P - Атмосферное давление - приведенное к уровню моря атмосферное давление.
Po - Атмосферное давление - измеренное на уровне метеостанции атмосферное давление.
Tmin - Минимальная температура - минимум температуры воздуха на высоте 2 м над землей.
Tmax - Максимальная температура - максимум температуры воздуха на высоте 2 м над землей.
R - Количество осадков - Количество выпавших осадков за период времени, мм. При наведении курсора мыши на число - период времени, за который выпало указанное количество осадков.
R24 - Количество осадков - Количество выпавших осадков за 24 часа, мм.
S - Снежный покров - Высота снежного покрова, см. При наведении курсора мыши на число - состояние снежного покрова и степень покрытия местности в баллах.